Rensselaer, IN

12:56 AM CDT on August 30, 2016 (GMT -0500)
Jasper County

Weather History for KRZL - April, 2014

Change the Weather History Date:

Friday, April 4, 2014

  Actual Average (KVPZ) Record (KVPZ)
Temperature  
Mean Temperature 40 °F 45 °F  
Max Temperature 44 °F 55 °F 74 °F (2010)
Min Temperature 35 °F 35 °F 22 °F (2013)
Degree Days  
Heating Degree Days 26 20  
Month to date heating degree days 83  
Since 1 July heating degree days 5660  
Cooling Degree Days 0 0  
Month to date cooling degree days 0  
Year to date cooling degree days 0  
Moisture  
Dew Point 37 °F    
Average Humidity 91    
Maximum Humidity 100    
Minimum Humidity 75    
Precipitation  
Precipitation 0.00 in 0.09 in 1.51 in (2003)
Month to date precipitation 0.37  
Year to date precipitation 6.02  
Sea Level Pressure  
Sea Level Pressure 29.69 in    
Wind  
Wind Speed 14 mph (WSW)    
Max Wind Speed 30 mph    
Max Gust Speed 40 mph    
Visibility 7 miles    
Events Fog , Rain    
T = Trace of Precipitation, MM = Missing Value Source: NWS Daily Summary

Daily Weather History Graph

Daily Weather History Graph

Search for Another Location

Airport or City:

Trip Planner

Search our weather history database for the weather conditions in past years. The results will help you decide how hot, cold, wet, or windy it might be!

Date:

Astronomy

Apr. 04, 2014 Rise Set
Actual Time 6:27 AM CDT 7:16 PM CDT
Civil Twilight 5:59 AM CDT 7:44 PM CDT
Nautical Twilight 5:26 AM CDT 8:17 PM CDT
Astronomical Twilight 4:52 AM CDT 8:52 PM CDT
Moon 9:42 AM CDT (4/4) No Moon Set
Length of Visible Light 13h 45m
Length of Day
12h 49m
Waxing Crescent, 25% of the Moon is Illuminated
Apr 4
Waxing Crescent
Apr 7
First Quarter
Apr 15
Full
Apr 22
Last Quarter
Apr 29
New

Hourly Weather History & Observations

Time (CDT) Temp. Windchill Dew Point Humidity Pressure Visibility Wind Dir Wind Speed Gust Speed Precip Events Conditions
12:15 AM 39.2 °F 33.0 °F 39.2 °F 100% 29.68 in 4.0 mi ENE 9.2 mph - N/A   Overcast
12:35 AM 39.2 °F 34.2 °F 39.2 °F 100% 29.70 in 4.0 mi ENE 6.9 mph - N/A   Overcast
12:55 AM 39.2 °F 33.6 °F 39.2 °F 100% 29.69 in 3.0 mi East 8.1 mph - N/A   Overcast
1:15 AM 39.2 °F 33.6 °F 39.2 °F 100% 29.68 in 3.0 mi ENE 8.1 mph - N/A   Overcast
1:35 AM 39.2 °F 33.0 °F 39.2 °F 100% 29.66 in 2.5 mi ENE 9.2 mph - N/A   Overcast
1:55 AM 39.2 °F 32.5 °F 39.2 °F 100% 29.64 in 2.0 mi ENE 10.4 mph - N/A   Overcast
2:15 AM 39.2 °F 30.5 °F 39.2 °F 100% 29.61 in 2.0 mi East 16.1 mph - N/A   Overcast
2:35 AM 39.2 °F 30.8 °F 39.2 °F 100% 29.56 in 1.2 mi East 15.0 mph - N/A   Overcast
2:55 AM 41.0 °F 36.4 °F 39.2 °F 93% 29.58 in 1.5 mi East 6.9 mph - N/A   Overcast
3:15 AM 41.0 °F 35.2 °F 39.2 °F 93% 29.56 in 1.5 mi ENE 9.2 mph - N/A   Overcast
3:35 AM 41.0 °F 35.8 °F 41.0 °F 100% 29.57 in 1.8 mi NE 8.1 mph - N/A   Overcast
3:55 AM 41.0 °F 35.2 °F 41.0 °F 100% 29.53 in 1.2 mi NE 9.2 mph - N/A   Overcast
4:15 AM 41.0 °F 35.8 °F 41.0 °F 100% 29.53 in 1.0 mi NE 8.1 mph - N/A   Overcast
4:35 AM 41.0 °F 35.8 °F 41.0 °F 100% 29.51 in 1.0 mi NNE 8.1 mph - N/A   Overcast
4:55 AM 41.0 °F 38.0 °F 41.0 °F 100% 29.51 in 1.0 mi ENE 4.6 mph - N/A   Overcast
5:15 AM 41.0 °F 38.0 °F 41.0 °F 100% 29.51 in 1.0 mi East 4.6 mph - N/A   Overcast
5:35 AM 41.0 °F - 41.0 °F 100% 29.52 in 1.2 mi Calm Calm - N/A   Overcast
5:55 AM 41.0 °F 38.0 °F 41.0 °F 100% 29.51 in 0.5 mi East 4.6 mph - N/A Fog Fog
6:15 AM 41.0 °F 35.8 °F 41.0 °F 100% 29.51 in 0.2 mi East 8.1 mph - N/A Fog Fog
6:35 AM 41.0 °F 37.1 °F 41.0 °F 100% 29.51 in 0.2 mi East 5.8 mph - N/A Fog Fog
6:55 AM 41.0 °F 38.0 °F 41.0 °F 100% 29.51 in 0.2 mi East 4.6 mph - N/A Fog Fog
7:15 AM 41.0 °F 39.0 °F 41.0 °F 100% 29.51 in 0.2 mi SE 3.5 mph - N/A Fog Fog
7:35 AM 41.0 °F - 41.0 °F 100% 29.51 in 0.2 mi Calm Calm - N/A Rain Light Rain
7:55 AM 41.0 °F - 41.0 °F 100% 29.50 in 0.2 mi Calm Calm - N/A Rain Light Rain
8:15 AM 42.8 °F 35.8 °F 42.8 °F 100% 29.52 in 0.8 mi SW 13.8 mph 19.6 mph N/A Rain Rain
8:35 AM 44.6 °F 37.4 °F 44.6 °F 100% 29.53 in 1.2 mi WSW 16.1 mph 21.9 mph N/A Rain Rain
8:55 AM 44.6 °F 36.6 °F 44.6 °F 100% 29.53 in 2.0 mi WSW 19.6 mph 26.5 mph N/A   Overcast
9:15 AM 42.8 °F 33.8 °F 42.8 °F 100% 29.54 in 10.0 mi WSW 21.9 mph 31.1 mph N/A   Overcast
9:35 AM 42.8 °F 34.5 °F 42.8 °F 100% 29.56 in 10.0 mi WSW 18.4 mph 29.9 mph N/A   Overcast
9:55 AM 42.8 °F 32.7 °F 42.8 °F 100% 29.56 in 10.0 mi WSW 27.6 mph 36.8 mph N/A   Overcast
10:15 AM 41.0 °F 30.7 °F 41.0 °F 100% 29.58 in 10.0 mi WSW 25.3 mph 40.3 mph N/A   Overcast
10:35 AM 41.0 °F 30.9 °F 41.0 °F 100% 29.58 in 10.0 mi WSW 24.2 mph 32.2 mph N/A   Overcast
10:55 AM 42.8 °F 33.3 °F 41.0 °F 93% 29.58 in 10.0 mi WSW 24.2 mph 32.2 mph N/A   Overcast
11:15 AM 41.0 °F 30.2 °F 37.4 °F 87% 29.59 in 10.0 mi WSW 27.6 mph 38.0 mph N/A   Overcast
11:35 AM 41.0 °F 30.7 °F 37.4 °F 87% 29.60 in 10.0 mi WSW 25.3 mph 38.0 mph N/A   Overcast
11:55 AM 39.2 °F 28.0 °F 35.6 °F 87% 29.61 in 10.0 mi WSW 26.5 mph 40.3 mph N/A   Overcast
12:15 PM 39.2 °F 28.5 °F 35.6 °F 87% 29.62 in 10.0 mi WSW 24.2 mph 35.7 mph N/A   Overcast
12:35 PM 39.2 °F 28.0 °F 35.6 °F 87% 29.63 in 10.0 mi WSW 26.5 mph 35.7 mph N/A   Overcast
12:55 PM 41.0 °F 29.8 °F 35.6 °F 81% 29.64 in 10.0 mi WSW 29.9 mph 35.7 mph N/A   Overcast
1:15 PM 41.0 °F 30.0 °F 35.6 °F 81% 29.65 in 7.0 mi WSW 28.8 mph 40.3 mph N/A   Overcast
1:35 PM 39.2 °F 28.7 °F 37.4 °F 93% 29.66 in 7.0 mi WSW 23.0 mph 34.5 mph N/A   Light Drizzle
1:55 PM 39.2 °F 27.6 °F 35.6 °F 87% 29.67 in 10.0 mi WSW 28.8 mph 39.1 mph N/A   Overcast
2:15 PM 39.2 °F 27.8 °F 35.6 °F 87% 29.69 in 10.0 mi WSW 27.6 mph 36.8 mph N/A   Overcast
2:35 PM 39.2 °F 27.6 °F 35.6 °F 87% 29.70 in 10.0 mi WSW 28.8 mph 40.3 mph N/A   Overcast
3:15 PM 39.2 °F 28.5 °F 32.0 °F 75% 29.72 in 10.0 mi WSW 24.2 mph 36.8 mph N/A   Overcast
3:35 PM 37.4 °F 25.9 °F 32.0 °F 81% 29.73 in 10.0 mi WSW 25.3 mph 34.5 mph N/A   Overcast
3:55 PM 37.4 °F 25.9 °F 32.0 °F 81% 29.74 in 10.0 mi WSW 25.3 mph 36.8 mph N/A   Overcast
4:15 PM 37.4 °F 25.4 °F 32.0 °F 81% 29.75 in 10.0 mi WSW 27.6 mph 38.0 mph N/A   Overcast
4:35 PM 37.4 °F 25.6 °F 32.0 °F 81% 29.77 in 10.0 mi WSW 26.5 mph 34.5 mph N/A   Overcast
4:55 PM 37.4 °F 26.9 °F 32.0 °F 81% 29.78 in 10.0 mi WSW 20.7 mph 36.8 mph N/A   Overcast
5:15 PM 37.4 °F 25.9 °F 32.0 °F 81% 29.80 in 10.0 mi WSW 25.3 mph 34.5 mph N/A   Overcast
5:35 PM 37.4 °F 26.4 °F 32.0 °F 81% 29.81 in 10.0 mi West 23.0 mph 33.4 mph N/A   Overcast
5:55 PM 37.4 °F 26.1 °F 32.0 °F 81% 29.83 in 10.0 mi West 24.2 mph 38.0 mph N/A   Overcast
6:15 PM 37.4 °F 25.9 °F 30.2 °F 75% 29.84 in 10.0 mi West 25.3 mph 32.2 mph N/A   Overcast
6:35 PM 37.4 °F 26.6 °F 30.2 °F 75% 29.86 in 10.0 mi West 21.9 mph 32.2 mph N/A   Overcast
6:55 PM 37.4 °F 26.4 °F 30.2 °F 75% 29.87 in 10.0 mi West 23.0 mph 32.2 mph N/A   Overcast
7:15 PM 37.4 °F 26.9 °F 30.2 °F 75% 29.88 in 10.0 mi West 20.7 mph 27.6 mph N/A   Overcast
7:35 PM 35.6 °F 24.5 °F 30.2 °F 81% 29.89 in 10.0 mi West 20.7 mph 28.8 mph N/A   Overcast
7:55 PM 35.6 °F 25.9 °F 30.2 °F 81% 29.90 in 10.0 mi West 16.1 mph 21.9 mph N/A   Overcast
8:15 PM 35.6 °F 24.5 °F 30.2 °F 81% 29.91 in 10.0 mi West 20.7 mph 26.5 mph N/A   Overcast
8:35 PM 35.6 °F 25.5 °F 30.2 °F 81% 29.92 in 10.0 mi West 17.3 mph 25.3 mph N/A   Overcast
8:55 PM 35.6 °F 25.2 °F 30.2 °F 81% 29.93 in 10.0 mi West 18.4 mph 24.2 mph N/A   Overcast
9:15 PM 35.6 °F 25.2 °F 30.2 °F 81% 29.94 in 10.0 mi West 18.4 mph 25.3 mph N/A   Overcast
9:35 PM 35.6 °F 25.9 °F 32.0 °F 87% 29.94 in 10.0 mi West 16.1 mph 24.2 mph N/A   Overcast
9:55 PM 35.6 °F 25.9 °F 32.0 °F 87% 29.95 in 10.0 mi West 16.1 mph 21.9 mph N/A   Overcast
10:15 PM 35.6 °F 25.5 °F 32.0 °F 87% 29.96 in 10.0 mi West 17.3 mph 23.0 mph N/A   Overcast
10:35 PM 35.6 °F 26.2 °F 32.0 °F 87% 29.97 in 10.0 mi West 15.0 mph - N/A   Overcast
10:55 PM 35.6 °F 25.5 °F 32.0 °F 87% 29.98 in 10.0 mi West 17.3 mph 20.7 mph N/A   Overcast
11:15 PM 35.6 °F 25.2 °F 32.0 °F 87% 29.99 in 10.0 mi West 18.4 mph 21.9 mph N/A   Overcast
11:35 PM 35.6 °F 26.6 °F 32.0 °F 87% 29.99 in 10.0 mi West 13.8 mph - N/A   Overcast
11:55 PM 35.6 °F 26.6 °F 32.0 °F 87% 30.00 in 10.0 mi West 13.8 mph 26.5 mph N/A   Overcast